TimeAKDT,TemperatureF,Dew PointF,Humidity,Sea Level PressureIn,VisibilityMPH,Wind Direction,Wind SpeedMPH,Gust SpeedMPH,PrecipitationIn,Events,Conditions,WindDirDegrees,DateUTC
12:03 AM,51.8,51.8,100,30.05,1.2,Calm,Calm,-,N/A,,Overcast,0,2013-08-13 08:03:00
12:05 AM,51.8,51.8,100,30.05,3.0,Calm,Calm,-,N/A,,Overcast,0,2013-08-13 08:05:00
12:14 AM,53.6,51.8,94,30.05,2.5,Calm,Calm,-,N/A,,Overcast,0,2013-08-13 08:14:00
12:23 AM,51.8,51.8,100,30.05,6.0,Calm,Calm,-,N/A,,Overcast,0,2013-08-13 08:23:00
12:32 AM,51.8,51.8,100,30.05,1.5,Calm,Calm,-,N/A,,Overcast,0,2013-08-13 08:32:00
12:34 AM,51.8,51.8,100,30.05,0.8,ENE,3.5,-,N/A,,Overcast,60,2013-08-13 08:34:00
12:43 AM,51.8,51.8,100,30.05,1.2,Calm,Calm,-,N/A,,Overcast,0,2013-08-13 08:43:00
12:53 AM,53.1,53.1,100,30.05,2.5,Calm,Calm,-,N/A,,Overcast,0,2013-08-13 08:53:00
1:01 AM,53.6,53.6,100,30.05,9.0,Calm,Calm,-,N/A,,Overcast,0,2013-08-13 09:01:00
1:18 AM,51.8,51.8,100,30.04,2.5,Calm,Calm,-,N/A,,Overcast,0,2013-08-13 09:18:00
1:21 AM,51.8,51.8,100,30.04,1.0,Calm,Calm,-,N/A,,Overcast,0,2013-08-13 09:21:00
1:29 AM,53.6,51.8,94,30.04,0.8,Calm,Calm,-,N/A,,Overcast,0,2013-08-13 09:29:00
1:31 AM,53.6,51.8,94,30.04,1.2,Calm,Calm,-,N/A,,Overcast,0,2013-08-13 09:31:00
1:42 AM,53.6,51.8,94,30.04,0.8,Calm,Calm,-,N/A,,Overcast,0,2013-08-13 09:42:00
1:50 AM,53.6,53.6,100,30.04,1.2,Calm,Calm,-,N/A,,Overcast,0,2013-08-13 09:50:00
1:53 AM,53.1,53.1,100,30.04,1.5,Calm,Calm,-,N/A,,Overcast,0,2013-08-13 09:53:00
2:03 AM,53.6,53.6,100,30.04,3.0,Calm,Calm,-,N/A,,Overcast,0,2013-08-13 10:03:00
2:53 AM,54.0,53.1,97,30.04,7.0,Calm,Calm,-,N/A,,Overcast,0,2013-08-13 10:53:00
3:12 AM,53.6,51.8,94,30.04,1.8,Calm,Calm,-,N/A,,Overcast,0,2013-08-13 11:12:00
3:22 AM,53.6,53.6,100,30.04,0.8,Calm,Calm,-,N/A,,Overcast,0,2013-08-13 11:22:00
3:26 AM,53.6,53.6,100,30.04,1.2,Calm,Calm,-,N/A,,Overcast,0,2013-08-13 11:26:00
3:31 AM,53.6,53.6,100,30.03,4.0,Calm,Calm,-,N/A,,Overcast,0,2013-08-13 11:31:00
3:45 AM,53.6,51.8,94,30.03,1.8,Calm,Calm,-,N/A,,Overcast,0,2013-08-13 11:45:00
3:53 AM,53.1,52.0,96,30.04,1.5,Calm,Calm,-,N/A,,Overcast,0,2013-08-13 11:53:00
4:01 AM,53.6,53.6,100,30.03,3.0,Calm,Calm,-,N/A,,Overcast,0,2013-08-13 12:01:00
4:48 AM,55.4,53.6,94,30.03,7.0,Calm,Calm,-,N/A,,Overcast,0,2013-08-13 12:48:00
4:53 AM,55.0,53.1,93,30.03,7.0,Calm,Calm,-,N/A,,Overcast,0,2013-08-13 12:53:00
5:09 AM,53.6,53.6,100,30.03,1.8,Calm,Calm,-,N/A,,Overcast,0,2013-08-13 13:09:00
5:47 AM,53.6,51.8,94,30.03,0.8,Calm,Calm,-,N/A,,Overcast,0,2013-08-13 13:47:00
5:53 AM,53.1,52.0,96,30.03,0.8,Calm,Calm,-,N/A,,Overcast,0,2013-08-13 13:53:00
6:21 AM,53.6,53.6,100,30.02,1.2,Calm,Calm,-,N/A,,Overcast,0,2013-08-13 14:21:00
6:26 AM,53.6,53.6,100,30.02,3.0,Calm,Calm,-,N/A,,Overcast,0,2013-08-13 14:26:00
6:51 AM,53.6,53.6,100,30.02,1.8,Calm,Calm,-,0.01,,Overcast,0,2013-08-13 14:51:00
6:53 AM,54.0,54.0,100,30.02,1.5,Calm,Calm,-,0.01,Rain,Light Rain,0,2013-08-13 14:53:00
6:58 AM,53.6,53.6,100,30.02,0.8,Calm,Calm,-,0.00,Rain,Light Rain,0,2013-08-13 14:58:00
7:15 AM,55.4,53.6,94,30.02,1.0,Calm,Calm,-,0.00,,Overcast,0,2013-08-13 15:15:00
7:31 AM,55.4,53.6,94,30.02,0.8,Calm,Calm,-,0.01,,Overcast,0,2013-08-13 15:31:00
7:35 AM,55.4,53.6,94,30.02,1.2,Calm,Calm,-,0.01,,Overcast,0,2013-08-13 15:35:00
7:43 AM,55.4,53.6,94,30.02,3.0,Calm,Calm,-,0.01,,Overcast,0,2013-08-13 15:43:00
7:49 AM,55.4,53.6,94,30.02,1.8,Calm,Calm,-,0.01,,Overcast,0,2013-08-13 15:49:00
7:53 AM,55.0,54.0,96,30.02,0.8,Calm,Calm,-,0.01,,Overcast,0,2013-08-13 15:53:00
8:49 AM,53.6,53.6,100,30.03,1.0,Calm,Calm,-,N/A,,Mist,0,2013-08-13 16:49:00
8:53 AM,54.0,53.1,97,30.03,1.2,Calm,Calm,-,N/A,,Overcast,0,2013-08-13 16:53:00
9:05 AM,53.6,53.6,100,30.03,1.0,Calm,Calm,-,0.01,,Mist,0,2013-08-13 17:05:00
9:21 AM,53.6,53.6,100,30.03,0.8,Calm,Calm,-,0.01,,Overcast,0,2013-08-13 17:21:00
9:28 AM,53.6,53.6,100,30.03,1.2,Calm,Calm,-,0.01,,Overcast,0,2013-08-13 17:28:00
9:50 AM,55.4,53.6,94,30.03,3.0,SSE,3.5,-,0.02,,Overcast,160,2013-08-13 17:50:00
9:53 AM,55.0,54.0,96,30.04,3.0,SSE,3.5,-,0.02,,Overcast,160,2013-08-13 17:53:00
10:06 AM,55.4,55.4,100,30.03,1.8,SSE,4.6,-,N/A,,Overcast,150,2013-08-13 18:06:00
10:26 AM,55.4,55.4,100,30.03,2.0,Calm,Calm,-,N/A,,Overcast,0,2013-08-13 18:26:00
10:42 AM,55.4,55.4,100,30.03,10.0,South,3.5,-,N/A,,Overcast,170,2013-08-13 18:42:00
10:53 AM,55.9,55.0,97,30.04,10.0,SE,3.5,-,N/A,,Overcast,140,2013-08-13 18:53:00
11:08 AM,57.2,55.4,94,30.03,10.0,Calm,Calm,-,N/A,,Overcast,0,2013-08-13 19:08:00
11:53 AM,57.9,55.0,90,30.04,10.0,South,4.6,-,N/A,,Overcast,190,2013-08-13 19:53:00
12:53 PM,57.9,55.0,90,30.04,10.0,South,4.6,-,N/A,,Overcast,190,2013-08-13 20:53:00
1:53 PM,60.1,55.0,83,30.03,10.0,SSE,8.1,-,N/A,,Mostly Cloudy,160,2013-08-13 21:53:00
2:53 PM,59.0,54.0,83,30.03,10.0,SSE,11.5,16.1,N/A,,Partly Cloudy,150,2013-08-13 22:53:00
3:53 PM,57.9,54.0,87,30.02,10.0,SSE,15.0,-,N/A,,Clear,160,2013-08-13 23:53:00
4:53 PM,57.9,54.0,87,30.02,10.0,South,6.9,17.3,N/A,,Overcast,170,2013-08-14 00:53:00
5:53 PM,57.0,53.1,87,30.03,10.0,SSE,6.9,-,N/A,,Overcast,160,2013-08-14 01:53:00
6:53 PM,57.0,53.1,87,30.03,10.0,SSE,6.9,-,N/A,,Overcast,150,2013-08-14 02:53:00
7:53 PM,55.9,54.0,93,30.03,10.0,Calm,Calm,-,N/A,,Overcast,0,2013-08-14 03:53:00
8:53 PM,55.9,54.0,93,30.03,10.0,Calm,Calm,-,N/A,,Overcast,0,2013-08-14 04:53:00
9:53 PM,55.0,53.1,93,30.04,10.0,SSE,3.5,-,N/A,,Overcast,160,2013-08-14 05:53:00
10:16 PM,55.4,53.6,94,30.03,10.0,SSW,4.6,-,N/A,,Overcast,210,2013-08-14 06:16:00
10:42 PM,55.4,53.6,94,30.04,10.0,Calm,Calm,-,N/A,,Overcast,0,2013-08-14 06:42:00
10:53 PM,55.0,53.1,93,30.04,10.0,Calm,Calm,-,N/A,,Overcast,0,2013-08-14 06:53:00
11:53 PM,55.9,53.1,90,30.04,10.0,Calm,Calm,-,N/A,,Overcast,0,2013-08-14 07:53:00